Theta_e
317 318 321 321 321 321 319 320 324 325 327 335 342 334 322 324 332 331 327 327 327 325 322 318 316 315 314 313 312 310 310 310 309 309 308 307 306 306 306 306 306 306 306 307 308 308 309 312 317 321 323 323 324 324 324 324 323 322 322 322 322 322 321 321 321 320 320 320 320 320 316 315 320 321 319 320 319 319 319 318 317 318 319 319 320 320 320
317 318 321 321 320 319 318 318 318 319 322 325 329 326 322 326 330 328 325 323 320 317 314 312 311 310 309 309 308 307 307 308 307 306 306 306 305 305 305 305 305 305 305 306 306 307 307 308 313 319 322 322 322 323 322 323 323 323 322 322 322 321 320 321 320 320 320 320 320 319 317 318 321 321 319 320 319 319 319 319 319 319 320 320 320 320 320
318 318 320 320 320 320 320 319 316 317 320 321 321 322 321 324 325 322 321 320 317 313 311 310 310 309 307 307 306 306 306 306 306 306 305 305 305 305 305 305 305 304 304 305 305 305 306 307 310 315 319 321 321 321 321 321 322 323 322 322 322 321 321 322 322 320 320 321 322 321 321 321 322 321 320 319 317 316 317 318 319 319 319 320 320 320 320
319 317 318 320 321 321 322 321 315 314 318 320 319 320 320 322 322 321 322 322 317 312 310 309 309 308 307 307 306 305 305 305 306 305 305 305 305 305 305 304 304 304 303 304 304 305 305 306 307 310 313 317 318 318 320 320 321 322 322 321 321 321 322 323 323 321 320 320 321 321 320 320 320 320 317 315 314 316 318 319 319 318 318 319 320 320 321
319 317 318 319 321 323 324 319 312 312 316 318 318 318 317 319 320 321 323 321 314 311 310 309 308 307 306 306 306 306 305 305 306 305 305 305 305 304 305 304 304 304 304 304 304 304 304 305 305 305 307 309 309 311 314 317 319 320 321 321 321 321 321 322 322 322 322 321 320 321 321 321 321 320 317 315 316 319 320 319 319 319 319 319 320 320 321
319 317 317 319 321 322 320 315 311 311 314 316 317 316 315 315 316 316 317 314 311 310 309 308 307 306 306 305 304 305 305 305 305 305 305 305 304 304 304 304 304 304 304 304 304 304 304 303 304 304 303 304 304 304 306 308 311 313 315 316 318 319 320 321 321 321 321 321 321 320 321 321 322 322 321 319 320 320 320 320 319 319 319 319 320 320 320
320 317 318 322 323 320 316 314 312 311 311 312 313 313 312 312 313 312 312 310 309 309 308 306 306 306 305 304 303 303 304 304 304 305 305 304 304 304 303 303 303 303 303 303 303 303 303 303 303 303 302 302 302 302 302 303 303 304 306 307 309 311 314 316 318 320 320 321 321 320 319 320 320 321 320 320 320 320 320 320 320 320 320 320 320 320 320
319 318 319 321 320 316 314 315 314 311 312 313 313 314 312 311 311 311 310 309 308 307 307 306 305 305 305 304 304 303 303 303 303 304 304 303 303 303 303 303 303 303 303 303 303 303 303 303 302 302 302 302 301 301 302 302 301 302 302 303 303 304 305 307 310 313 315 317 318 319 319 319 320 320 319 319 320 320 320 320 320 320 320 321 321 320 319
318 319 318 316 317 316 315 315 313 311 312 311 311 314 313 310 310 310 309 309 307 306 306 306 305 306 306 305 305 304 303 303 303 303 303 303 303 303 303 302 302 302 302 302 302 302 302 302 302 302 302 302 301 301 300 301 301 301 301 301 301 302 302 302 303 305 307 309 311 312 314 315 317 319 320 320 320 319 320 320 320 319 319 319 320 319 319
316 317 317 317 319 319 316 314 312 311 311 309 308 312 313 309 309 310 309 308 307 305 305 305 305 306 306 305 304 303 303 302 302 303 303 303 303 303 302 302 301 301 301 301 301 301 301 301 301 301 302 302 302 300 300 300 300 300 300 300 300 301 301 301 301 302 303 304 304 305 305 306 308 312 316 319 320 320 320 320 320 320 320 320 320 320 320
317 318 318 318 319 316 312 311 311 310 310 309 310 314 315 310 308 308 308 306 305 305 304 304 304 305 305 304 303 302 302 303 303 303 303 303 303 302 301 301 301 300 300 300 300 300 300 300 300 301 301 302 301 300 299 300 299 299 299 299 299 300 300 301 301 301 302 302 303 303 302 302 303 304 307 311 315 319 320 320 321 321 321 320 320 320 320
316 317 317 315 315 313 310 309 309 308 308 309 314 320 318 311 307 307 306 305 304 304 304 305 305 305 304 303 302 302 302 302 301 301 300 300 300 300 300 299 300 299 300 300 300 300 299 299 300 300 300 300 300 299 299 299 299 298 298 298 299 299 299 300 300 300 301 301 302 302 302 302 302 302 302 303 306 309 313 316 318 320 320 320 320 320 319
313 314 315 314 312 310 308 306 306 306 308 312 316 318 314 308 306 306 304 304 304 304 304 305 304 303 303 303 302 302 301 299 298 297 297 297 298 298 298 298 298 298 299 299 299 299 299 299 299 299 299 298 298 298 298 298 298 297 297 298 298 298 298 298 299 299 299 300 300 301 301 301 302 302 302 302 302 303 304 307 310 312 314 316 318 319 320
312 312 313 314 312 308 304 304 304 306 311 315 313 310 308 307 306 305 304 303 303 303 302 302 302 302 302 301 301 300 299 298 297 296 296 297 297 297 298 298 298 298 298 298 298 297 298 298 298 298 298 297 297 297 297 297 297 297 297 297 297 297 297 297 297 298 298 299 299 299 300 300 301 301 301 301 302 302 302 303 304 305 307 309 312 315 317
311 311 311 313 313 307 303 305 308 309 311 312 308 305 305 305 304 304 303 302 301 300 300 300 300 300 299 299 299 298 298 297 296 296 296 296 296 297 298 298 298 298 298 297 297 297 297 297 297 297 297 297 296 296 296 296 296 296 296 296 296 296 296 296 296 296 297 297 298 298 298 299 299 300 300 300 300 301 301 302 303 303 304 305 307 308 311
309 311 309 309 309 304 302 305 308 307 306 306 305 303 303 303 303 302 301 301 300 299 299 298 299 298 298 298 298 298 298 297 295 295 296 296 296 297 297 298 298 298 297 296 296 296 296 296 296 296 296 296 296 296 295 296 296 296 296 296 296 296 296 296 296 296 296 296 296 297 297 297 298 299 299 299 299 300 300 301 301 302 303 303 303 304 306
306 308 306 304 303 302 302 303 303 303 303 303 303 302 302 302 302 301 300 300 299 299 298 298 298 298 298 298 298 299 299 297 295 295 296 296 297 297 297 297 297 297 297 296 295 295 295 296 296 296 296 296 295 295 295 295 295 295 295 295 295 295 295 295 295 295 295 296 296 296 296 297 297 298 298 298 299 299 299 300 300 301 301 302 302 302 302
305 305 304 302 302 302 302 302 302 302 303 303 301 301 301 301 300 300 299 299 299 299 299 298 298 298 298 299 299 300 299 296 294 295 296 296 296 297 296 296 296 296 296 295 295 295 294 295 295 295 295 295 294 294 295 295 295 295 295 295 295 295 294 294 294 295 295 295 295 295 296 296 296 297 297 298 298 298 298 299 300 300 300 301 301 300 301
305 306 305 303 302 302 302 302 302 302 303 302 302 302 302 302 302 301 301 300 300 299 298 298 298 298 299 299 299 299 298 295 293 293 294 295 296 296 296 296 296 296 296 295 295 295 294 294 295 295 295 295 294 294 294 294 294 295 295 295 295 294 294 294 294 294 294 294 295 295 295 295 295 296 296 296 297 297 298 298 299 300 300 300 299 300 301
305 306 304 303 303 303 302 302 302 302 303 302 302 302 302 302 302 301 301 301 300 299 298 297 298 298 298 299 299 299 297 294 292 293 294 294 295 296 296 296 296 296 296 295 294 294 294 294 294 294 294 294 294 294 294 293 294 294 294 294 293 293 293 293 293 294 294 294 294 294 294 294 294 295 295 295 296 296 297 298 298 299 299 300 300 300 300
304 303 302 302 303 302 302 302 302 301 302 301 301 301 300 301 302 301 300 299 299 298 297 296 297 298 297 296 297 297 294 292 292 294 294 295 296 296 296 296 296 295 295 295 295 294 294 294 294 293 293 293 293 293 293 293 293 293 293 293 292 292 292 292 293 293 293 293 294 294 294 294 294 294 294 295 295 296 296 297 298 298 298 299 300 300 300
305 305 303 303 304 303 302 302 301 300 300 300 300 299 299 299 300 300 299 297 296 295 295 294 296 299 298 294 293 294 293 292 293 295 295 295 296 296 296 296 296 295 295 295 295 294 294 293 293 293 293 292 292 292 292 292 292 292 292 292 292 291 291 292 292 293 293 293 293 293 293 294 294 294 294 294 295 295 295 296 297 297 298 298 299 300 300
307 306 305 303 304 303 301 301 301 299 299 299 299 298 298 298 297 297 297 298 297 296 295 294 294 296 296 294 293 292 292 294 295 295 296 296 296 295 296 296 295 295 295 295 294 294 293 293 293 293 292 292 292 292 292 292 292 292 292 291 291 291 291 292 292 292 292 292 292 292 293 294 295 295 295 295 295 295 295 295 296 297 297 298 299 300 300
304 305 305 304 303 303 301 301 301 298 297 298 299 299 298 297 296 295 295 296 297 297 295 294 294 295 294 294 293 292 293 294 295 296 295 296 295 295 295 295 295 295 295 294 294 293 293 293 293 292 292 292 291 291 291 291 291 292 291 291 291 291 291 291 292 292 292 292 293 293 294 294 295 294 294 294 295 296 296 296 296 296 296 297 297 298 299
303 302 301 301 301 302 300 299 298 296 295 296 298 298 297 295 295 295 293 293 294 295 294 293 294 295 294 294 294 294 294 295 295 296 295 295 295 295 295 295 295 295 294 294 294 293 293 293 293 292 292 291 291 291 291 291 291 291 291 291 291 291 291 291 292 292 293 293 294 294 294 293 293 293 293 292 292 293 294 295 295 296 296 296 296 297 298
300 298 298 298 298 299 298 298 298 297 295 295 296 296 295 295 295 295 294 293 294 294 294 293 294 294 294 294 294 294 295 295 295 295 295 295 295 295 295 295 295 294 294 294 294 293 293 293 292 292 292 291 291 290 291 291 291 291 291 291 291 291 292 292 293 294 294 294 293 293 292 292 292 291 291 291 290 290 291 293 294 294 295 295 296 296 297
299 298 299 299 297 297 298 299 299 296 293 294 294 294 295 296 295 295 294 294 294 295 295 294 294 294 293 294 294 294 295 295 295 295 295 295 295 295 295 295 294 294 294 294 293 292 292 292 292 292 292 291 291 291 291 291 291 291 291 292 292 292 293 294 294 294 293 293 293 292 292 291 290 290 290 290 290 289 289 289 291 292 293 293 294 295 296
300 299 299 299 299 299 298 297 295 294 293 293 293 293 294 294 294 294 295 294 293 294 294 294 294 294 293 293 294 294 294 294 295 294 295 295 294 295 295 294 294 294 293 293 293 292 292 292 292 292 292 291 291 291 291 291 292 292 292 293 294 294 294 295 295 294 293 293 293 292 291 291 290 290 290 290 289 288 288 289 290 291 292 293 294 295 296
300 299 298 298 297 295 295 294 295 295 295 294 293 293 293 294 296 297 296 294 292 292 293 293 293 294 294 293 293 294 294 294 294 294 294 294 294 294 294 294 294 294 293 293 292 292 292 292 292 292 292 291 291 292 292 292 292 293 294 295 295 295 295 295 295 294 293 293 293 292 291 291 291 290 290 290 290 288 287 289 290 291 292 292 293 294 296
298 298 299 297 293 293 296 298 299 299 297 294 293 294 293 293 298 299 296 293 292 292 292 292 292 293 293 293 293 293 294 294 294 294 294 294 294 294 294 293 293 293 292 292 292 291 292 292 292 292 292 292 292 292 292 293 293 294 295 296 296 296 296 295 294 294 294 293 292 291 291 291 291 290 290 290 289 287 287 288 290 291 291 292 292 293 294
297 298 301 299 296 297 300 300 298 298 296 293 294 297 296 296 299 301 297 293 291 291 292 292 291 291 292 292 292 293 293 293 293 293 294 294 293 293 293 293 293 292 292 292 291 291 292 292 293 292 292 293 293 293 293 294 295 295 296 296 296 296 296 295 294 294 294 293 292 292 292 291 291 291 290 289 287 286 286 288 289 290 290 291 292 292 293
298 298 300 300 299 300 301 299 297 298 298 296 296 298 298 297 299 299 296 293 291 291 292 292 292 291 291 291 291 292 292 292 292 293 292 292 292 292 292 292 292 292 292 291 291 291 291 292 293 293 293 294 294 294 294 295 295 296 296 296 296 296 295 295 294 294 293 293 292 292 292 291 291 291 290 287 286 286 287 288 289 289 290 290 291 292 293
299 299 299 299 299 300 300 298 298 299 299 297 296 295 294 294 294 294 293 292 291 291 292 293 292 291 291 290 290 290 291 291 292 291 291 291 291 291 292 292 292 292 292 291 291 291 291 292 293 293 293 294 295 295 295 295 295 296 296 297 296 296 295 295 294 294 293 293 293 292 292 291 291 290 289 286 286 287 289 289 289 289 289 290 291 292 293
298 300 299 297 297 298 299 299 300 300 298 295 293 292 292 293 294 294 292 292 292 292 292 293 293 291 291 291 290 289 289 290 290 290 290 290 291 291 292 292 292 292 292 291 291 291 292 292 293 293 294 295 296 295 295 295 295 295 296 296 296 296 295 295 294 294 293 293 293 292 292 292 291 289 287 286 286 288 289 289 289 290 290 290 291 291 292
295 296 295 294 294 295 296 297 299 299 298 297 295 294 293 293 294 294 293 292 293 293 293 294 293 292 292 291 289 287 287 287 288 289 289 290 291 292 292 292 292 292 292 291 291 291 292 293 293 293 294 296 296 296 295 295 295 295 296 296 296 295 295 295 294 294 293 293 293 293 292 292 291 289 287 286 287 288 289 289 289 290 290 290 290 291 291
295 294 293 293 294 295 295 296 295 294 294 295 295 294 293 293 294 294 294 293 294 294 294 293 293 292 291 289 287 286 285 285 287 288 289 289 291 292 292 292 292 292 292 292 291 292 292 293 293 294 295 296 296 295 295 295 295 295 295 296 296 296 295 295 294 294 294 293 293 293 292 291 291 290 288 287 288 289 289 289 289 289 290 290 290 290 291
295 295 295 294 295 295 296 296 296 294 294 294 294 294 294 294 294 294 294 294 294 294 293 293 292 291 289 287 286 286 286 286 287 287 288 289 291 292 292 292 292 292 292 292 292 292 292 293 294 295 296 295 295 295 295 295 295 295 295 295 295 296 296 295 294 294 294 293 293 293 292 291 291 290 289 288 289 289 290 290 289 289 289 289 290 290 290
295 296 296 295 295 296 296 296 296 296 295 295 295 295 295 295 295 294 293 293 294 293 293 293 291 288 287 286 286 288 289 288 287 287 287 289 290 291 292 292 292 292 292 293 293 293 293 294 295 296 296 295 295 295 295 295 296 296 295 295 295 295 296 296 295 295 295 294 294 293 292 292 291 290 290 289 290 290 290 290 290 290 290 289 289 289 289
295 295 295 295 296 296 296 296 296 296 296 295 295 295 295 295 295 294 293 294 293 293 293 291 289 287 287 288 288 289 290 290 289 288 288 288 289 291 292 292 292 292 293 293 293 293 293 294 295 296 295 295 295 296 295 295 296 296 296 296 296 295 295 296 296 296 295 294 294 293 293 292 291 291 291 290 290 290 290 290 290 290 290 290 289 289 288
295 295 295 295 296 296 296 296 296 296 296 296 296 296 296 295 295 294 293 294 293 293 292 290 288 287 289 289 290 290 290 290 290 289 289 288 289 290 291 292 293 293 293 293 293 293 294 295 295 295 295 295 295 295 295 295 296 296 296 296 296 296 296 296 296 296 295 295 294 293 293 292 291 291 291 291 290 290 290 290 290 290 290 290 290 290 289
296 296 295 295 295 295 296 296 295 295 296 296 296 296 296 296 295 294 293 293 293 293 292 291 289 290 291 291 291 290 290 290 290 290 289 289 288 288 289 291 293 293 293 294 293 293 293 294 295 295 295 295 294 294 295 295 295 295 296 296 296 296 296 296 296 296 296 295 294 293 293 293 292 291 291 290 290 290 290 290 290 290 290 290 291 291 291
296 296 296 295 295 295 295 295 295 295 296 296 296 296 296 296 295 295 294 294 294 293 292 292 292 292 292 291 291 291 290 290 291 291 290 290 290 289 289 291 292 293 293 294 294 293 293 294 295 294 294 294 294 294 295 295 295 295 295 295 295 295 295 295 295 295 295 295 294 294 293 293 292 291 291 290 290 290 290 290 290 290 289 289 290 290 290
297 296 296 296 296 296 296 296 295 295 295 296 296 296 295 295 295 295 294 294 294 293 293 293 293 292 292 292 291 290 290 290 291 291 291 291 291 291 290 291 292 292 292 293 294 294 293 294 294 294 294 294 294 294 294 295 295 295 295 295 295 295 294 294 295 294 294 294 294 294 293 293 292 292 291 290 290 290 289 289 289 290 289 289 289 289 289
297 297 297 297 296 296 297 297 296 296 296 296 296 296 295 295 296 295 295 294 294 293 293 293 293 293 293 292 291 291 290 291 291 291 291 291 291 291 291 291 291 292 292 293 294 294 294 294 294 294 294 294 294 294 294 294 294 294 294 294 294 294 294 294 294 294 294 293 293 294 294 293 293 292 291 290 290 290 289 289 289 289 289 289 289 289 289
297 297 297 297 297 297 297 297 296 296 296 296 296 296 296 296 296 296 296 295 294 294 294 294 294 293 293 292 292 292 292 292 292 291 290 290 290 291 291 291 291 291 293 294 294 294 294 294 293 294 294 294 294 294 294 294 294 294 294 294 294 294 293 293 293 293 293 293 293 293 293 293 293 292 291 291 291 290 290 289 289 289 288 288 288 288 288
297 297 296 296 296 296 296 296 296 296 296 296 296 296 296 296 296 296 296 295 294 294 294 294 294 293 293 293 293 293 292 292 292 291 291 290 290 290 290 291 291 292 293 294 294 294 294 294 294 294 294 294 294 294 294 294 294 294 294 293 293 293 293 293 293 293 293 293 292 293 293 293 293 292 292 291 291 291 290 290 289 289 288 288 288 288 287
297 296 296 297 297 297 296 296 296 296 295 295 295 295 296 297 297 297 297 296 295 295 295 294 294 294 294 294 293 293 293 293 293 292 291 291 290 290 290 291 292 293 293 293 293 293 294 294 294 294 294 294 294 294 294 294 294 294 294 294 293 293 293 293 293 293 293 292 292 292 292 292 292 292 292 291 291 291 291 290 289 289 288 288 288 288 287
297 297 297 297 297 296 296 296 296 295 295 295 295 296 296 296 296 297 297 296 296 296 296 295 295 295 295 295 294 294 293 293 292 292 292 292 291 290 291 291 291 292 292 292 291 292 294 294 294 294 294 294 294 294 294 294 294 294 293 293 293 293 293 293 293 293 293 292 292 291 292 291 291 291 291 291 291 291 291 290 290 289 288 288 288 288 287
297 297 297 297 297 296 296 296 296 296 296 296 296 296 296 296 296 296 297 296 296 296 296 296 296 296 296 295 295 295 294 293 293 293 293 293 291 291 291 291 290 290 290 290 290 292 293 293 293 294 293 293 294 294 294 293 293 293 293 293 293 293 293 293 292 292 293 292 292 291 291 291 291 290 290 290 290 290 290 290 289 289 288 288 288 287 287
297 297 297 297 297 296 296 296 296 296 296 296 296 296 296 296 296 296 296 296 296 296 296 296 296 296 295 296 296 295 295 295 294 293 293 293 292 291 291 291 290 290 289 288 289 291 293 293 293 293 292 293 294 294 292 291 292 292 292 292 292 292 292 292 292 292 292 292 291 291 291 291 290 290 290 290 290 290 290 289 289 288 288 288 287 287 287
297 297 297 297 297 297 297 296 296 296 296 296 296 296 296 296 296 296 296 296 296 296 295 295 295 296 296 296 296 296 296 295 295 294 293 293 292 291 291 291 291 291 289 288 288 289 292 293 292 291 291 292 294 293 291 291 291 291 291 290 291 291 291 291 291 291 291 291 291 290 290 290 290 290 289 289 289 289 289 288 288 288 287 287 287 287 287
297 297 297 297 297 297 297 296 296 296 296 296 296 296 296 296 295 296 296 296 296 296 296 296 295 295 295 295 295 296 296 296 295 294 293 293 292 291 291 291 291 291 290 288 287 287 289 291 290 289 289 291 292 292 291 290 290 290 290 289 289 289 289 289 290 290 290 291 291 290 290 290 290 289 289 288 288 288 288 287 287 287 287 286 286 286 286
Wind_Speed
6 6 6 5 4 4 5 7 7 9 10 5 6 4 3 5 4 4 6 7 6 5 6 6 6 7 8 8 7 6 7 8 9 11 13 12 11 12 12 11 9 9 9 9 12 15 17 17 15 13 12 12 11 9 8 9 11 14 15 18 23 23 22 27 31 32 31 31 30 28 28 27 26 25 27 28 26 25 24 23 22 22 21 21 21 21 21
8 9 7 8 7 5 6 8 8 9 9 6 6 4 4 8 7 6 10 10 6 5 5 6 7 7 7 7 7 7 8 9 9 12 13 11 10 11 11 10 9 9 9 11 14 17 18 18 16 14 14 14 14 12 10 8 9 12 15 19 21 18 15 20 26 30 30 30 29 29 31 31 30 29 30 29 28 27 25 25 24 23 23 23 23 23 23
6 7 6 8 7 5 6 8 10 10 9 7 6 4 6 9 9 8 10 9 5 4 4 6 7 7 8 9 9 8 8 7 9 12 11 10 10 10 10 10 9 10 11 12 15 17 18 20 20 19 18 17 17 17 16 14 11 11 15 18 20 19 16 16 22 25 26 26 28 29 31 31 30 30 30 29 27 26 25 25 25 24 24 25 24 24 24
2 5 5 6 7 5 5 8 12 12 7 4 3 2 2 4 9 11 9 5 3 3 5 6 7 8 11 11 9 9 8 7 8 11 10 9 9 9 9 10 10 11 12 12 15 18 20 23 24 22 22 23 22 20 19 18 16 13 13 14 16 16 14 14 16 18 19 21 23 24 25 26 27 27 26 25 25 26 26 26 24 24 26 26 25 25 24
1 2 3 4 4 3 2 5 8 8 5 2 2 4 5 3 7 9 6 4 5 6 7 8 9 10 11 10 8 8 7 6 7 10 10 10 9 8 9 10 11 11 11 13 17 20 23 25 25 24 25 27 26 25 24 23 21 19 17 14 12 10 9 10 10 11 14 15 17 19 20 20 21 22 23 23 25 26 26 25 24 24 26 26 25 25 25
2 1 2 3 2 1 1 2 4 5 3 3 4 5 6 6 6 6 6 7 8 7 7 9 10 10 9 8 6 6 5 4 6 9 9 8 8 9 9 10 10 10 12 16 20 23 24 25 25 27 28 27 27 28 28 27 27 26 24 21 17 13 10 8 7 6 8 10 11 12 10 10 12 14 15 17 21 24 24 24 23 23 24 26 25 26 27
3 1 3 3 0 1 1 1 3 3 3 6 8 9 8 7 9 11 11 9 7 7 8 9 10 10 9 8 7 7 6 4 5 8 8 7 8 8 8 8 9 11 15 18 21 23 23 23 25 28 29 27 28 29 29 29 29 30 30 29 26 23 20 16 11 8 5 4 5 4 3 5 8 7 5 6 11 16 18 19 21 22 24 25 26 26 26
2 2 2 1 1 1 2 3 3 3 3 4 6 8 8 6 5 9 12 10 8 8 8 8 8 9 9 9 7 7 6 4 4 7 7 7 8 7 8 10 11 14 16 18 20 22 23 24 26 28 28 29 30 29 29 29 29 31 34 33 32 31 30 27 23 18 15 12 11 9 7 4 5 4 4 6 9 12 12 12 15 19 21 22 23 22 20
2 3 2 1 1 0 1 2 2 1 1 2 2 3 4 4 3 6 12 13 10 9 8 8 7 7 8 8 5 5 5 5 5 7 8 8 9 9 12 14 14 15 17 19 21 23 25 26 25 25 27 30 32 32 32 30 29 31 33 32 31 32 32 30 29 27 24 22 21 19 17 13 7 3 2 5 8 11 12 12 13 16 18 20 21 19 17
1 3 3 1 1 1 1 1 3 1 2 2 2 2 2 2 3 5 11 13 11 9 9 8 6 4 6 6 3 3 4 4 5 7 9 10 11 12 14 16 17 17 19 22 24 24 26 26 24 24 25 27 30 31 32 31 31 31 31 29 28 29 29 27 27 27 27 26 26 25 24 22 18 13 7 2 3 7 10 11 11 13 17 19 20 18 17
2 3 3 2 2 1 1 2 5 4 2 2 3 4 1 1 4 6 9 12 10 9 9 6 3 2 5 4 1 0 2 3 5 6 6 9 12 14 16 17 17 18 18 21 24 25 26 25 23 23 24 26 29 29 29 30 30 29 28 28 27 27 25 24 23 24 24 24 24 25 25 24 23 21 17 12 5 1 5 8 9 10 12 15 16 16 16
2 3 2 0 1 1 1 3 6 6 3 1 5 3 3 4 6 5 7 11 10 7 6 4 3 3 5 5 4 3 2 3 6 7 7 9 11 14 16 16 18 19 20 22 24 24 24 22 21 22 23 26 28 26 26 28 27 25 24 24 24 24 23 22 22 22 22 22 22 22 22 21 21 21 20 18 15 11 6 4 5 8 9 11 13 14 15
3 3 2 0 1 2 2 4 7 6 2 2 3 2 4 4 7 6 6 9 8 5 4 3 2 3 5 7 6 4 3 4 7 10 13 14 15 14 14 15 18 21 22 23 23 22 21 20 21 21 22 25 26 24 24 25 23 21 21 21 21 21 21 22 22 21 21 21 21 21 20 19 19 19 19 19 17 16 14 11 8 6 6 8 11 13 13
2 2 2 0 1 1 3 6 7 4 0 2 2 2 1 6 9 7 6 6 6 5 4 4 5 6 7 8 7 5 5 5 6 10 14 17 17 16 16 17 19 21 22 21 20 19 19 19 19 18 20 23 24 23 24 23 20 19 19 19 19 19 20 21 21 21 21 20 20 20 19 18 18 19 19 18 17 17 16 14 13 13 12 10 9 10 12
1 3 3 1 1 1 6 7 4 2 1 2 2 2 5 7 9 8 7 5 6 8 7 6 8 10 9 9 8 6 6 6 7 11 14 15 16 16 17 18 19 20 21 21 20 20 18 17 17 17 19 22 23 24 24 21 17 17 18 18 18 19 20 20 21 20 20 19 19 19 19 19 18 18 18 18 18 17 17 16 15 15 16 15 13 12 12
1 2 2 1 1 5 6 3 1 2 3 0 3 5 6 6 7 7 6 5 4 7 10 9 9 10 9 8 7 6 6 6 9 12 14 15 16 16 16 17 18 19 21 22 23 22 20 19 19 18 19 22 23 23 21 17 15 15 16 17 17 19 20 20 20 20 19 19 19 19 19 18 17 17 18 19 18 17 17 18 18 16 16 17 16 15 15
3 3 1 1 1 3 4 4 4 5 5 4 6 9 8 6 5 5 7 7 5 6 10 10 9 8 7 6 6 6 6 6 8 11 13 15 15 15 15 17 19 21 22 23 23 23 21 20 20 19 19 20 22 21 18 15 15 15 15 15 17 19 19 19 19 19 17 17 18 19 19 19 18 18 18 18 18 17 16 17 17 17 16 16 16 15 15
4 5 4 3 3 4 6 7 7 7 7 5 7 10 9 6 6 6 7 8 6 6 8 9 7 6 6 6 6 6 6 6 8 11 13 13 15 15 16 19 20 21 22 22 22 22 20 18 18 17 17 18 18 17 14 14 14 13 13 14 15 16 17 17 18 17 17 16 16 16 17 17 17 17 17 17 17 17 16 15 16 16 16 16 15 14 14
2 3 3 4 5 5 6 7 8 9 9 8 8 10 8 7 7 7 8 8 7 6 8 8 7 6 6 7 6 5 5 7 9 12 13 14 15 17 18 18 19 19 20 20 19 19 18 16 15 15 15 15 15 13 13 13 13 12 12 13 13 14 15 15 15 16 16 15 15 15 15 15 15 15 15 15 16 16 17 17 16 16 16 16 15 13 13
3 3 1 4 7 7 6 6 6 7 8 9 9 8 8 8 8 8 9 9 7 6 6 7 7 6 5 6 7 5 5 7 9 12 13 15 17 18 18 17 17 17 17 17 16 16 16 14 14 14 14 13 12 11 11 11 11 11 11 11 11 12 13 13 13 14 14 14 14 14 14 14 14 15 15 15 14 14 15 15 15 15 16 16 15 13 14
5 4 4 5 7 7 6 6 6 5 6 8 8 8 8 9 8 8 10 10 8 7 7 7 8 7 5 6 8 6 5 7 10 12 14 16 16 16 16 15 15 14 14 14 14 14 13 12 12 12 13 12 11 11 11 10 10 10 10 10 10 11 11 11 11 11 11 11 12 13 13 13 13 13 14 14 14 13 12 11 12 12 14 15 15 14 14
2 2 4 5 5 4 2 3 5 5 6 8 8 8 8 8 8 8 8 8 9 9 9 11 10 7 4 6 9 8 6 8 12 14 15 16 16 14 13 12 11 11 11 10 11 12 11 10 10 11 11 11 11 10 10 9 9 9 8 9 10 11 11 11 11 10 11 11 11 12 12 12 12 12 12 11 12 12 12 11 10 10 12 13 14 14 15
3 4 5 4 5 4 2 2 4 4 5 7 8 8 7 7 7 9 9 8 7 7 7 12 13 9 6 8 11 9 7 9 12 13 14 14 13 12 10 9 8 8 7 7 8 10 9 9 9 10 10 10 10 10 9 8 7 7 8 8 10 11 11 12 12 12 13 13 12 12 12 12 12 12 13 12 10 9 10 11 11 10 11 12 12 13 15
3 3 4 3 5 5 3 2 4 4 6 8 7 6 6 6 8 10 10 8 8 7 5 7 13 13 11 10 11 10 8 9 12 12 12 11 11 10 8 7 6 6 6 6 7 8 8 7 8 8 9 9 9 8 8 7 6 6 7 9 10 10 10 11 12 12 13 13 12 12 13 13 13 13 15 16 16 14 11 11 11 11 12 13 13 13 14
5 4 4 4 6 6 4 4 5 5 6 9 7 4 6 8 10 12 12 10 12 13 9 7 10 13 11 10 11 12 10 10 11 11 10 9 8 7 6 5 5 5 5 5 5 5 5 6 8 8 8 8 8 6 6 7 7 7 7 8 9 9 9 10 11 12 11 11 12 13 14 14 14 14 15 17 19 20 19 17 15 13 11 12 14 16 16
6 7 7 7 6 5 5 6 5 4 5 8 7 4 7 11 12 14 14 13 14 16 14 12 11 10 9 10 11 12 12 10 10 9 8 7 6 5 4 3 3 4 4 3 3 4 5 6 7 7 7 9 8 6 6 6 6 7 7 8 8 8 9 10 11 10 10 12 13 14 14 15 15 15 15 15 16 18 20 22 21 19 16 14 14 15 17
7 8 9 9 6 3 2 3 4 3 5 10 10 7 9 12 14 14 13 12 13 14 14 14 12 9 9 11 12 12 12 11 10 8 7 7 5 4 3 3 2 3 2 2 3 3 5 6 6 6 6 7 7 6 6 6 6 7 7 8 8 8 9 9 9 9 11 12 14 15 15 16 15 15 15 14 14 14 15 17 20 22 23 21 17 15 16
6 5 6 7 5 3 2 4 8 8 8 11 14 13 12 12 12 10 8 8 10 11 11 11 11 11 12 12 13 13 12 11 10 9 8 6 5 4 4 4 4 2 1 1 2 3 4 5 5 5 5 5 5 6 6 6 7 7 8 8 8 8 8 8 8 9 10 12 14 15 15 15 15 14 14 13 13 13 14 14 16 19 21 21 19 16 14
5 4 5 6 7 8 6 6 8 7 6 9 12 14 13 10 7 6 6 7 8 9 8 8 10 12 13 13 13 13 13 12 11 9 7 6 5 4 4 4 3 2 1 1 2 3 4 4 5 5 4 4 5 5 6 6 7 8 8 9 8 8 7 7 7 8 9 12 14 14 13 13 13 14 14 14 13 12 13 14 16 18 19 19 18 16 13
1 3 6 6 7 9 9 6 6 5 5 6 7 8 8 8 6 4 5 6 6 6 6 7 9 11 13 14 13 13 12 11 9 8 7 6 6 5 5 4 3 3 2 1 1 3 3 4 6 4 4 4 4 4 5 6 7 8 8 8 7 6 6 6 6 8 10 12 13 12 12 12 13 14 15 15 14 14 14 14 16 18 18 18 18 18 17
2 4 6 6 6 7 7 6 5 4 3 3 5 5 6 7 6 4 4 4 6 6 6 7 9 10 11 12 12 11 10 9 8 8 7 7 6 5 5 5 5 5 4 2 2 3 2 3 4 2 2 3 4 4 5 5 6 7 8 7 5 4 5 7 7 8 10 11 11 11 12 12 13 14 15 15 14 15 15 16 17 18 19 18 17 17 16
6 6 6 6 5 5 5 4 4 4 2 3 4 5 5 6 6 5 4 5 8 10 10 10 10 11 12 11 10 10 9 9 9 8 8 6 5 4 4 5 6 6 4 1 2 4 2 1 2 1 1 2 3 3 3 4 5 6 6 5 4 4 6 7 8 8 8 9 10 12 13 13 14 15 15 13 13 14 16 16 17 18 18 18 17 16 15
7 5 4 4 5 5 4 4 5 5 4 4 5 8 8 8 9 9 8 9 11 12 12 12 13 12 12 11 9 9 8 9 9 9 8 6 4 4 4 6 7 6 4 1 2 5 4 1 1 0 1 2 1 1 2 2 4 5 5 5 4 3 5 6 7 6 7 8 10 11 13 13 14 14 13 11 12 14 15 15 16 17 17 17 16 15 13
7 7 8 8 7 7 6 6 5 5 5 4 5 7 7 7 9 10 11 12 13 13 13 14 14 13 12 10 8 8 9 9 9 9 8 6 4 4 5 7 7 6 4 2 4 6 6 3 2 1 2 2 1 2 2 2 3 4 3 4 3 2 3 5 4 5 6 7 8 10 12 13 13 13 11 11 13 15 15 14 14 15 16 16 16 14 13
3 4 6 8 8 9 9 7 6 6 6 4 5 7 8 8 9 11 12 13 13 13 14 14 13 12 10 8 7 8 9 9 8 8 7 5 4 4 6 7 7 5 4 4 7 8 7 4 3 2 2 1 1 2 3 3 3 2 1 2 2 2 3 4 3 3 5 6 7 9 11 12 11 11 12 13 14 15 14 14 14 14 14 15 15 14 13
6 7 6 6 8 10 10 8 9 10 10 9 9 10 9 9 10 12 13 13 14 14 14 13 12 10 9 8 7 7 7 6 6 6 5 4 4 4 5 6 7 6 4 5 8 9 7 5 3 2 1 1 1 1 2 2 1 1 2 2 2 2 2 2 2 3 3 3 6 8 10 10 9 10 12 13 14 14 14 13 13 13 13 13 14 14 13
12 13 10 9 10 10 9 9 10 12 12 12 12 12 11 10 10 12 14 14 14 14 13 12 10 9 8 8 7 5 4 3 4 5 5 4 5 5 5 6 7 8 6 5 6 8 8 5 4 3 3 2 0 1 1 0 0 1 2 3 3 3 3 2 1 3 3 3 4 6 8 8 8 10 12 12 13 13 14 13 13 13 13 13 13 13 13
12 13 13 11 9 8 8 7 9 11 13 13 12 12 12 11 11 12 14 15 14 13 13 10 8 8 8 8 7 6 5 4 4 5 6 6 6 7 7 7 7 8 8 5 4 6 7 5 5 5 4 3 1 2 2 2 2 2 2 2 4 4 5 4 3 4 5 5 5 4 5 6 7 8 10 10 10 12 12 12 12 13 13 13 13 13 13
7 8 11 11 10 8 7 7 9 12 13 14 13 12 11 11 12 14 15 15 14 14 12 10 9 10 9 8 8 9 8 7 6 6 6 7 8 8 9 9 8 8 7 5 5 7 9 7 6 5 5 4 4 4 4 4 4 3 3 3 4 5 6 6 6 6 6 7 7 5 2 4 5 6 7 8 8 9 10 11 12 12 12 13 14 15 15
3 3 5 8 8 7 7 9 11 12 13 14 14 13 11 12 14 16 16 15 14 14 13 11 11 11 10 9 10 10 9 9 9 9 8 8 8 10 11 11 9 8 8 8 7 11 13 10 7 6 6 6 6 6 6 6 6 5 4 5 5 6 8 8 8 7 8 9 8 6 3 2 4 5 6 8 9 9 9 10 11 12 12 12 14 15 16
2 1 4 6 6 6 7 7 9 11 12 13 13 12 11 12 15 17 17 15 15 16 15 13 11 11 10 9 9 9 8 7 9 10 11 11 11 12 13 11 8 6 9 9 10 13 15 13 9 7 7 8 7 7 7 7 7 7 5 5 5 6 7 8 8 8 9 10 10 8 5 1 2 3 5 7 9 9 9 9 10 10 10 10 11 12 12
4 3 4 4 4 4 3 4 6 9 10 11 12 11 10 11 13 15 16 15 16 17 17 14 12 12 10 8 7 7 7 7 7 9 12 14 14 14 13 10 6 5 9 10 11 14 17 15 12 9 9 9 8 8 8 8 9 8 7 6 5 5 6 7 7 8 9 10 10 10 8 4 2 2 4 7 8 7 7 8 8 9 9 9 9 9 8
3 3 4 5 5 4 3 3 4 6 6 7 9 10 9 9 10 13 15 15 16 17 17 15 14 14 14 11 9 8 8 9 9 10 12 14 14 15 15 12 8 6 8 11 11 13 16 16 14 12 11 11 10 9 8 8 9 9 8 6 5 5 5 6 7 7 7 7 8 9 10 7 4 3 4 6 7 6 5 7 8 8 9 9 8 7 7
5 5 5 5 6 6 5 5 6 6 6 7 7 8 9 9 8 10 13 16 17 16 15 15 15 16 16 14 12 10 10 10 10 11 12 13 14 16 17 15 12 9 9 11 12 13 14 15 15 13 12 11 10 8 7 7 7 7 6 6 6 5 5 6 5 6 5 5 6 7 9 9 6 4 5 6 6 4 4 5 5 6 8 8 8 6 5
6 6 6 6 6 6 8 9 9 9 10 10 9 9 10 11 9 8 10 13 15 14 13 14 16 16 16 15 14 13 12 11 10 10 11 12 12 12 12 12 12 12 12 12 13 14 13 13 13 12 11 10 9 7 7 8 8 6 5 5 5 5 5 4 4 4 5 5 5 5 7 9 8 6 6 7 6 3 2 3 3 4 5 6 7 5 3
6 5 5 6 7 7 7 8 8 8 9 10 10 11 12 12 11 9 9 10 12 13 13 14 16 16 15 15 14 13 14 13 12 11 11 10 10 9 8 7 8 11 12 12 12 13 14 14 13 12 11 10 9 8 8 9 9 7 5 5 5 6 6 6 5 5 5 5 5 5 5 7 7 7 7 8 7 5 2 0 1 2 3 4 5 5 3
8 7 7 8 8 7 6 6 6 5 5 6 8 10 11 11 11 11 10 10 11 12 12 13 14 15 16 16 15 14 15 15 14 14 14 12 11 9 8 6 6 9 11 11 11 12 14 14 13 12 10 10 9 8 8 10 10 9 7 6 6 7 8 7 7 7 7 7 7 6 6 6 6 7 8 9 9 8 6 4 2 1 1 3 4 4 3
8 9 9 9 9 9 7 6 5 5 6 8 10 12 12 11 12 12 11 11 11 11 11 11 11 12 13 15 15 16 16 15 14 13 13 13 12 11 9 7 6 8 10 10 10 11 13 13 12 10 9 9 9 8 9 10 11 11 10 9 9 10 10 9 10 10 10 10 9 8 8 7 6 6 7 8 9 10 9 7 4 3 2 2 3 3 2
7 8 9 10 10 10 9 7 6 7 7 9 10 11 10 9 10 12 12 12 12 12 11 10 9 8 9 10 12 14 16 17 17 15 13 12 11 11 10 7 7 8 9 10 10 11 12 12 12 10 9 9 9 9 10 11 11 11 10 10 10 11 11 11 11 12 13 12 11 10 9 9 7 7 7 7 8 9 10 8 7 6 5 4 3 3 2
7 8 9 10 10 9 7 6 6 6 6 6 7 9 9 9 10 12 13 13 12 11 10 9 8 7 7 7 7 9 11 14 17 18 16 13 11 11 11 9 8 8 9 9 10 11 12 12 12 11 10 10 10 10 10 10 10 9 8 9 9 10 10 10 11 12 13 14 13 11 11 10 9 8 8 8 8 9 10 9 8 8 7 6 4 4 4
7 7 8 9 9 7 6 6 6 6 5 6 7 8 10 13 14 14 13 13 12 10 10 10 11 10 9 8 7 7 7 8 11 15 16 15 12 10 11 10 9 9 9 9 10 11 13 13 12 11 11 11 11 11 10 10 9 8 8 8 9 9 10 11 11 11 12 13 13 13 12 11 10 10 9 9 9 9 10 10 10 9 9 8 6 5 5
7 7 7 7 8 9 9 8 8 7 7 7 8 9 10 12 14 14 13 12 12 11 11 11 11 10 9 9 8 7 7 7 8 10 14 15 14 12 12 11 10 10 9 9 9 10 12 13 13 11 11 12 13 13 12 11 10 9 9 8 9 10 10 10 10 10 11 12 13 13 12 12 11 11 10 10 10 10 11 11 11 10 10 9 8 7 7
Wind_Direction
23 20 9 20 63 84 52 36 21 357 347 21 90 118 172 139 129 170 158 123 109 105 87 76 68 67 70 62 54 56 58 59 63 65 62 53 45 45 43 38 33 33 33 28 25 26 28 37 51 69 87 109 125 136 157 170 174 176 168 156 159 161 157 158 161 161 165 172 176 180 186 191 195 197 197 198 197 195 196 199 202 205 208 209 210 210 210
28 17 22 39 45 54 51 35 24 17 6 22 79 112 127 106 103 130 125 107 80 55 63 73 74 73 78 73 60 53 54 56 61 67 65 55 46 47 45 38 35 35 34 32 30 27 26 28 35 50 64 80 93 97 106 125 147 164 166 166 171 175 171 166 164 165 169 173 177 181 187 191 193 194 195 196 197 198 200 201 203 206 208 212 217 218 218
23 2 23 38 22 25 55 34 14 15 16 22 48 76 95 90 90 100 102 98 79 50 70 86 84 81 79 71 60 54 50 52 68 72 65 58 54 49 44 39 34 35 36 33 30 29 28 30 36 43 50 59 69 76 81 86 100 133 153 160 170 181 186 177 172 175 176 178 181 183 187 191 193 193 194 197 201 207 209 206 207 209 211 215 220 223 224
4 341 7 15 2 10 45 26 4 358 2 16 27 26 39 103 127 123 111 115 132 111 100 89 80 82 79 68 56 55 43 28 55 72 69 62 58 47 41 38 34 35 34 30 32 34 34 35 38 42 51 57 60 66 74 79 84 101 123 139 157 173 180 176 179 184 184 182 181 181 185 192 195 196 199 203 207 212 213 212 211 213 214 218 223 225 224
55 340 356 358 9 32 28 6 348 331 319 330 7 12 5 32 128 134 135 142 134 125 116 96 80 78 77 70 66 68 54 21 32 60 67 63 58 48 43 40 37 36 31 32 39 41 40 42 42 45 55 60 61 65 72 77 83 87 91 101 120 140 154 160 170 185 192 190 184 181 185 191 195 200 205 209 211 212 213 214 215 216 218 223 227 227 224
143 248 12 22 40 108 214 299 316 314 334 43 56 41 21 33 82 98 97 104 111 118 116 106 100 92 79 71 66 66 65 53 57 65 61 53 53 53 50 47 44 38 33 38 44 45 45 47 49 52 57 60 63 66 69 72 76 78 78 78 80 84 93 110 127 158 185 194 194 192 190 184 187 195 201 206 211 213 215 217 217 219 223 226 229 230 227
134 127 59 58 143 208 218 297 313 330 52 84 77 60 45 61 93 98 92 89 94 102 105 105 107 104 91 75 56 37 33 40 73 80 68 53 52 52 50 53 52 47 44 44 46 47 47 47 50 53 54 55 58 60 62 64 66 70 71 68 64 64 65 68 75 91 116 141 162 174 174 182 198 203 187 189 207 213 216 218 217 220 227 228 228 229 227
120 99 65 99 199 298 338 339 331 345 33 58 63 58 44 40 79 104 105 102 101 103 104 102 104 107 98 81 58 40 35 27 55 79 77 68 62 55 55 57 56 55 55 54 53 52 52 52 51 52 53 54 55 54 54 56 58 63 67 64 60 59 58 57 59 66 73 76 78 77 83 124 198 216 188 192 213 218 219 220 216 217 226 231 229 228 227
124 113 73 61 163 286 328 340 341 47 59 347 25 78 54 31 47 106 115 119 121 119 114 113 121 121 96 74 46 37 51 52 58 71 78 80 78 73 70 67 64 63 64 64 62 60 57 54 52 53 55 56 55 52 50 48 49 55 60 59 58 58 57 56 57 60 64 68 69 70 70 70 69 76 152 193 215 220 224 229 220 211 217 228 233 234 235
101 108 102 122 198 200 188 276 292 246 208 236 174 116 55 50 98 124 124 126 129 131 130 132 148 134 83 72 41 14 39 54 65 71 75 77 79 78 76 74 71 67 67 69 68 65 62 56 53 55 57 56 54 53 50 47 45 48 51 52 54 56 56 55 54 55 59 61 63 64 63 62 61 61 65 93 227 232 234 239 235 222 219 226 234 236 235
96 116 120 150 183 202 211 267 293 306 269 226 115 85 347 181 144 141 134 131 133 138 140 135 121 91 90 100 141 40 47 48 58 68 68 67 69 70 72 76 75 68 66 69 69 66 65 61 55 54 56 57 55 52 50 49 45 42 44 47 50 52 52 51 50 50 52 54 55 56 55 54 56 56 57 60 60 295 259 260 259 250 240 238 241 243 242
101 106 95 113 188 247 310 303 307 310 279 147 90 76 251 189 146 144 140 136 136 138 140 122 62 88 132 151 170 168 134 49 53 64 64 64 69 71 73 77 78 72 65 62 60 60 64 65 60 55 55 58 56 52 51 51 47 42 42 46 49 51 50 48 47 45 45 47 47 47 46 46 46 47 47 49 52 51 36 342 289 276 272 266 261 257 255
75 92 101 34 271 274 320 321 310 306 291 120 109 209 228 157 127 126 130 135 137 139 149 142 79 75 118 130 141 141 109 70 68 74 76 78 80 84 85 82 79 75 70 65 60 57 57 60 60 60 60 60 57 53 51 50 46 43 44 45 47 48 47 46 45 42 41 41 41 40 38 37 36 37 35 33 34 38 39 36 28 3 326 298 284 276 269
57 94 107 64 267 293 346 327 310 309 304 169 197 232 166 120 119 120 123 133 135 123 119 118 106 97 99 106 113 110 97 92 86 80 80 81 81 84 87 84 81 79 75 71 66 59 54 56 57 59 62 62 58 54 52 51 49 48 48 45 44 45 45 44 42 39 37 34 34 33 31 28 28 28 26 23 21 21 21 21 23 22 16 1 332 308 293
55 61 63 92 186 315 343 336 324 348 33 193 175 94 89 105 113 115 115 119 126 121 110 100 103 102 97 97 102 100 98 99 92 86 84 81 79 80 82 81 80 79 74 69 68 65 64 64 61 58 61 62 57 53 52 50 50 50 49 48 46 46 46 45 42 39 36 31 28 25 22 21 20 17 15 14 14 15 14 12 9 7 7 6 359 346 331
73 80 67 110 259 303 326 350 95 48 358 281 128 101 92 96 103 111 107 87 94 117 115 109 105 103 102 105 107 104 101 96 89 87 85 81 79 80 81 79 78 78 77 74 74 72 70 69 66 62 63 64 60 55 52 48 46 45 44 45 45 44 44 42 39 37 35 31 29 25 21 18 14 11 10 9 8 9 8 8 8 4 357 355 353 348 342
84 95 80 82 321 323 359 58 82 61 34 33 82 93 90 87 92 105 107 97 88 100 107 107 103 103 106 109 107 105 101 94 92 91 85 79 75 72 75 80 83 85 85 82 78 75 71 68 66 63 62 64 62 58 52 46 43 42 40 39 42 44 43 40 36 32 28 27 26 26 25 23 20 16 12 10 10 10 4 2 5 5 357 351 347 341 334
84 61 41 52 61 43 51 63 69 70 61 48 72 85 83 79 82 86 98 103 100 96 100 101 99 103 110 105 97 99 96 87 88 89 82 75 72 74 80 88 92 92 90 86 81 77 71 67 65 61 58 59 59 54 46 39 35 32 30 31 36 39 39 38 35 32 29 26 23 20 20 21 21 18 15 13 13 13 10 7 5 3 356 352 347 337 325
93 53 22 28 49 48 55 68 74 74 71 64 70 79 81 79 79 78 82 88 88 87 93 101 107 113 117 110 98 92 95 91 86 86 84 78 79 85 92 96 97 95 91 88 86 84 81 75 71 66 60 58 55 48 39 32 24 18 20 24 27 27 27 27 26 25 25 24 19 15 14 13 12 11 10 10 9 8 8 6 3 360 355 353 354 345 325
76 88 64 45 54 46 40 61 75 75 76 74 72 78 86 83 75 71 74 78 80 79 85 100 110 110 108 111 109 100 93 89 85 87 89 88 88 92 95 96 94 92 91 90 88 89 89 85 78 74 70 64 58 48 42 36 27 24 30 33 33 31 26 22 19 18 17 15 11 8 5 2 1 1 0 1 2 5 6 3 358 354 350 348 351 348 333
84 98 112 94 73 49 35 56 75 77 84 87 82 82 87 86 83 78 72 72 80 92 98 104 105 101 103 112 112 105 91 89 92 94 95 93 91 91 90 88 86 84 85 88 89 90 92 86 76 73 70 65 57 50 47 42 34 38 48 50 47 43 37 30 27 25 23 21 17 11 4 356 351 349 347 347 347 347 351 354 351 345 341 339 341 339 333
131 183 164 138 113 91 72 84 89 92 104 106 102 99 95 94 99 99 87 78 80 89 104 112 109 105 115 114 105 99 99 108 113 111 107 103 100 96 90 82 76 73 74 77 82 87 89 81 70 65 62 55 47 40 37 34 32 39 51 56 54 52 46 42 42 41 37 33 27 20 13 4 355 346 337 334 333 330 330 332 332 330 328 328 329 328 327
195 202 181 158 123 117 124 75 81 97 111 108 107 108 105 103 110 113 107 101 88 71 86 112 119 122 129 118 106 96 103 120 124 120 116 111 106 100 92 81 71 66 65 69 79 84 82 72 63 57 50 44 38 32 30 34 38 44 54 60 58 52 43 40 40 36 28 23 17 13 12 11 8 0 349 340 335 331 327 322 319 319 319 318 317 317 317
126 136 159 156 120 119 134 105 87 92 105 107 105 106 107 111 119 119 116 117 117 102 78 103 122 129 130 124 116 113 120 132 129 122 117 111 103 96 89 82 76 69 65 71 79 80 75 65 51 42 39 36 32 31 39 50 57 58 60 62 58 49 39 33 28 21 16 14 14 14 14 15 12 6 358 349 342 337 333 326 318 315 317 319 318 313 308
107 114 123 108 102 112 122 106 80 65 90 107 110 117 128 130 130 127 124 124 127 127 121 121 132 135 132 125 125 129 136 141 134 126 117 108 99 91 83 78 78 81 83 82 76 66 54 39 26 22 26 25 21 31 53 62 62 63 61 56 49 41 32 25 19 16 18 23 25 23 17 13 7 0 357 353 345 338 333 329 323 313 308 313 319 317 312
98 102 90 76 74 88 99 94 67 31 71 105 111 127 142 142 140 137 139 141 140 137 135 138 142 141 132 127 130 135 139 140 137 131 123 113 104 94 86 82 90 102 107 99 78 54 28 17 17 22 27 24 24 45 66 61 57 62 58 48 39 30 22 20 21 27 34 36 32 24 14 7 2 358 357 356 352 345 338 334 331 324 316 312 312 312 312
101 106 99 86 69 44 64 128 141 147 123 118 119 128 140 141 141 141 142 144 145 145 143 143 143 137 130 132 136 140 144 148 146 139 132 128 128 128 133 142 149 143 128 99 75 44 22 24 35 40 36 32 38 56 63 59 61 62 49 37 32 28 27 32 38 44 44 37 27 18 12 9 6 4 360 355 353 353 350 343 338 332 326 323 320 314 311
119 127 119 120 138 175 199 155 145 143 132 125 128 134 138 137 135 138 141 145 154 158 154 147 144 142 139 142 146 147 149 153 152 147 145 148 153 160 166 170 171 167 141 84 44 26 30 43 39 29 31 44 53 61 66 63 58 49 35 31 37 40 43 50 54 52 46 33 21 15 13 12 8 3 357 351 350 354 356 352 345 340 335 334 331 323 315
137 126 100 111 135 136 122 116 127 135 140 137 134 136 139 134 128 138 158 169 173 170 159 150 154 155 153 154 156 155 154 157 157 158 162 166 168 171 171 173 180 195 219 9 27 48 60 44 19 21 55 78 73 71 69 54 40 35 33 38 47 50 52 60 66 59 44 28 20 16 13 11 9 3 358 355 355 358 358 353 349 348 348 349 349 343 336
99 97 96 103 117 120 120 134 152 159 161 149 131 124 126 126 130 159 189 185 177 172 160 151 154 156 158 163 167 167 166 167 167 171 176 178 180 183 186 194 203 195 177 151 97 104 86 30 19 42 79 76 59 52 40 31 31 36 42 49 53 54 62 78 80 59 37 24 20 20 17 12 8 4 3 4 5 5 1 355 352 352 354 357 1 1 357
47 65 93 106 118 131 144 160 163 157 155 133 111 102 102 110 129 175 202 178 163 160 150 145 149 155 162 168 169 170 173 176 178 185 189 189 191 199 212 225 222 196 173 167 166 161 134 21 29 65 63 45 54 54 36 33 39 42 49 62 70 75 84 83 66 42 29 25 24 23 20 14 9 6 7 9 10 9 6 358 354 355 355 356 358 1 1
79 57 70 86 99 121 143 161 163 160 153 126 132 149 149 139 151 177 184 166 165 163 156 158 165 166 163 164 164 168 178 186 191 196 196 195 202 214 219 215 203 183 169 195 216 192 195 4 31 71 30 44 84 79 52 46 42 40 53 75 85 90 87 67 37 22 29 32 26 20 16 12 9 11 12 13 13 12 9 3 357 355 355 357 357 357 356
112 95 94 105 106 117 154 193 196 184 180 180 184 188 183 166 162 167 165 161 165 166 167 173 176 171 166 167 173 181 189 191 192 196 199 200 210 222 207 193 184 176 176 220 219 195 198 247 358 41 17 22 54 44 31 31 22 25 51 77 79 82 81 53 24 21 39 33 17 13 13 10 11 17 18 19 21 18 12 8 6 1 359 1 1 356 350
151 167 179 172 153 150 169 194 205 196 192 201 207 204 195 177 168 170 169 166 167 173 178 180 176 173 174 182 192 199 200 198 198 202 204 206 216 221 203 191 185 184 191 203 196 192 199 225 273 307 337 345 344 342 330 323 338 355 39 71 70 80 87 63 34 32 43 29 7 7 11 10 16 27 31 29 28 23 16 14 16 11 6 6 5 360 353
159 147 161 163 157 156 162 171 183 185 182 189 209 213 209 191 174 172 177 178 177 180 181 178 175 179 189 201 214 219 218 219 220 214 207 207 214 213 202 193 190 192 197 194 193 198 210 232 265 305 324 326 336 325 305 299 312 327 74 93 84 95 96 72 30 17 35 27 6 5 10 11 18 36 45 41 33 27 22 23 25 22 17 14 11 8 8
137 116 118 138 147 152 161 173 182 183 181 186 197 204 203 189 177 178 186 187 183 180 177 175 180 193 206 218 225 222 220 224 221 208 204 210 207 199 200 202 200 202 208 203 200 206 219 237 258 281 283 266 9 354 311 285 291 241 186 155 135 137 126 86 21 356 11 14 0 2 8 11 20 40 51 48 38 30 27 28 31 31 30 27 22 19 20
148 140 143 154 156 158 168 181 188 188 187 189 194 199 197 190 185 187 190 187 181 178 177 179 191 206 213 216 216 208 205 215 210 201 207 215 204 196 203 211 210 214 226 230 216 212 217 231 252 250 225 206 336 351 330 313 349 284 237 220 218 224 222 218 320 327 320 323 341 354 2 10 25 43 53 52 44 35 31 31 35 38 38 37 35 33 32
154 151 150 152 155 158 166 179 193 196 191 189 196 203 202 194 190 189 188 186 183 181 182 188 202 208 203 199 201 204 211 220 216 211 214 216 213 211 214 219 222 224 230 234 219 204 205 223 249 245 225 211 249 284 288 305 321 313 281 240 221 222 234 248 271 291 293 289 294 319 353 15 29 43 54 55 49 42 37 38 42 46 46 46 47 48 47
140 146 146 145 146 155 169 187 200 202 197 194 200 205 201 194 193 194 193 191 189 188 189 195 203 203 201 204 215 225 229 228 224 223 222 221 225 230 233 235 236 233 233 238 219 196 197 214 236 231 214 220 253 275 289 296 297 295 273 235 216 218 236 255 267 273 276 275 270 272 324 24 34 45 56 59 54 48 46 47 49 52 56 59 61 61 61
104 137 164 165 168 179 191 197 203 206 206 205 207 208 203 198 199 201 200 198 196 195 196 200 205 209 214 225 237 247 251 243 234 232 231 229 232 242 250 254 252 240 236 240 222 200 199 212 227 223 213 226 253 278 293 292 289 289 277 256 247 245 248 254 256 256 258 260 254 245 245 29 44 54 62 65 63 59 55 53 53 54 58 64 68 70 72
113 214 231 227 224 219 211 204 203 204 206 208 212 215 214 209 206 206 206 205 203 202 202 204 211 220 229 241 252 266 275 266 246 237 235 234 233 238 248 259 264 245 234 234 220 204 204 211 220 226 229 237 253 274 287 284 280 283 286 281 277 270 261 260 259 255 254 254 248 238 231 224 68 76 79 78 74 66 58 55 55 54 53 58 65 68 72
138 154 175 188 196 202 209 216 210 202 202 211 219 221 220 216 214 213 213 210 208 207 207 209 219 232 242 252 262 269 272 267 253 239 235 237 238 239 245 259 274 251 235 234 223 211 211 215 218 221 230 241 257 276 284 276 268 273 283 288 285 275 268 268 268 261 257 258 252 240 230 228 214 134 108 99 89 72 53 46 49 51 49 49 52 57 61
181 179 170 166 167 167 171 199 206 203 212 228 229 225 224 223 221 220 218 214 210 211 212 214 224 237 246 253 258 258 255 254 251 244 241 244 246 246 248 258 271 262 243 239 229 216 215 221 223 225 232 244 259 275 281 268 261 269 276 270 262 267 275 274 266 256 257 265 259 240 227 222 218 191 149 127 114 90 50 34 38 44 44 39 37 43 55
199 214 224 217 208 204 209 219 226 234 250 257 246 231 225 223 222 226 227 220 215 215 218 221 229 239 246 250 249 248 248 252 254 252 249 249 253 255 256 257 258 253 245 241 232 220 216 220 223 225 233 244 255 269 273 260 257 271 274 254 245 262 278 273 255 244 253 275 277 248 228 222 219 211 189 166 145 120 70 42 37 34 30 25 24 34 59
213 221 231 235 235 236 240 247 252 254 257 262 260 246 233 228 229 236 237 230 222 220 223 229 233 239 245 249 250 249 252 258 263 259 252 249 256 267 273 269 256 245 238 234 229 222 217 217 219 223 233 244 253 262 262 252 251 266 278 262 249 252 252 244 237 240 255 278 289 265 237 227 227 225 212 195 180 158 88 54 36 23 22 20 16 21 58
242 239 234 238 249 262 270 275 276 270 264 267 267 256 242 235 234 234 233 230 226 224 226 230 233 237 244 252 254 252 252 256 260 258 254 253 258 270 285 287 265 243 232 228 228 224 219 219 223 228 236 247 257 262 256 247 246 255 270 273 261 243 224 217 229 248 261 273 281 272 246 233 234 236 229 217 209 207 210 331 2 12 27 27 14 10 37
254 256 253 251 258 270 285 296 294 277 254 251 255 250 239 232 233 236 233 228 228 232 237 239 241 244 252 258 259 255 252 252 253 253 253 253 255 259 266 275 263 239 227 227 231 227 221 222 228 234 239 249 259 260 250 243 244 252 261 264 254 237 224 223 234 247 258 271 274 263 247 240 241 241 238 234 229 227 226 223 224 277 354 5 358 356 11
264 264 267 269 271 275 281 287 281 260 239 237 247 252 248 240 238 240 237 230 230 237 244 247 249 254 260 264 265 261 255 249 249 254 259 259 254 250 252 257 252 237 229 230 233 227 222 223 228 234 242 252 254 247 239 240 247 253 257 254 246 241 242 247 250 249 253 261 264 257 249 248 250 248 247 245 239 234 232 226 218 220 246 295 317 323 343
281 277 278 278 275 273 273 272 269 265 260 257 256 256 252 242 234 233 234 234 237 241 244 246 250 259 264 267 268 264 256 249 248 255 265 271 265 254 248 248 246 237 232 233 231 225 222 224 228 235 247 251 241 228 231 242 247 249 252 253 252 251 253 257 257 252 249 249 252 251 248 248 252 255 254 248 240 233 229 226 223 226 235 251 268 269 242
294 286 280 277 275 270 266 266 270 273 274 271 262 251 237 224 220 224 230 233 238 242 240 237 240 249 256 260 265 265 258 254 252 252 255 263 266 256 245 243 247 246 242 238 231 223 221 225 231 240 248 244 230 223 231 239 239 239 247 257 262 260 256 252 249 246 242 241 243 245 243 244 250 254 251 246 241 232 220 214 217 226 232 235 242 240 218
302 291 282 281 283 278 269 268 273 273 267 265 265 255 240 230 230 234 237 237 239 243 242 240 244 249 250 248 253 262 265 265 260 251 245 246 250 248 240 240 246 250 249 243 233 224 223 226 232 240 244 238 229 227 231 231 228 235 250 260 261 260 256 251 248 246 242 240 241 242 240 241 246 250 249 245 239 227 214 211 217 225 228 227 223 217 206
300 300 294 287 284 280 274 268 265 263 259 257 261 260 250 239 235 237 239 238 239 243 248 252 257 257 248 239 245 257 264 268 267 255 243 239 238 235 232 234 241 246 248 248 240 230 225 226 229 235 240 237 231 229 230 229 230 240 253 260 262 262 260 255 251 247 245 244 243 241 240 240 243 248 251 246 233 220 218 222 224 222 219 216 211 208 207